Regional Weather Roundup
Issued by NWS

Home | Current Version | Previous Version | Graphics & Text | Print | Product List | Glossary On
Versions: 1 2 3 4 5 6 7 8 9 10 11 12 13 14 15 16 17 18 19 20 21 22 23 24 25 26 27 28 29 30 31 32 33 34 35 36 37 38 39 40 41 42 43 44 45 46 47 48 49 50
000
ASUS43 KFSD 182010
RWRSD

WEATHER ROUNDUP FOR SOUTH DAKOTA
NATIONAL WEATHER SERVICE SIOUX FALLS SD
200 PM CST THU DEC 18 2014

NOTE: "FAIR" INDICATES FEW OR NO CLOUDS BELOW 12,000 FEET WITH NO
SIGNIFICANT WEATHER AND/OR OBSTRUCTIONS TO VISIBILITY.


SDZ001>005-009-010-012>017-182100-
NORTHWEST AND NORTH CENTRAL SOUTH DAKOTA

CITY           SKY/WX    TMP DP  RH WIND       PRES   REMARKS
BUFFALO          N/A     36  29  75 W12       29.87F
FAITH            N/A     29  24  82 S12       29.99F WCI  19
MOBRIDGE       CLOUDY    27  24  89 S12       30.02F FOG     WCI  17
$$

SDZ012>016-024>037-041>051-057-063-072>074-182100-
SOUTHWEST AND SOUTH CENTRAL SOUTH DAKOTA

CITY           SKY/WX    TMP DP  RH WIND       PRES   REMARKS
RAPID CTY ARPT SUNNY     39  29  67 E6        29.96F
PIERRE         CLOUDY    28  24  85 SE7       30.07F WCI  21
CUSTER         MOSUNNY   38  18  44 NW8G16    29.94F
ELLSWORTH AFB  SUNNY     42  29  60 SE5       29.96F
PHILIP         MOSUNNY   27  21  78 VRB5      30.04F WCI  22
PINE RIDGE     SUNNY     37  23  56 SW12      30.01F
SPEARFISH      FAIR      39  23  52 W16G24    29.95F
WINNER         CLOUDY    30  24  78 SW7       30.07F WCI  23
$$

SDZ004>011-016>023-039-040-182100-
NORTHEAST SOUTH DAKOTA

CITY           SKY/WX    TMP DP  RH WIND       PRES   REMARKS
ABERDEEN       CLOUDY    24  20  84 S9        30.14F FOG     WCI  14
WATERTOWN      CLOUDY    23  19  85 S10       30.13F WCI  12
$$

SDZ017-020-022-023-036>040-048>070-182100-
SOUTHEAST SOUTH DAKOTA

CITY           SKY/WX    TMP DP  RH WIND       PRES   REMARKS
SIOUX FALLS    CLOUDY    25  21  85 S7        30.16F WCI  17
HURON          CLOUDY    25  21  85 S9        30.14F WCI  15
CHAMBERLAIN    CLOUDY    27  24  87 S6        30.10S WCI  20
MITCHELL         N/A     27  23  85 S8        30.16S WCI  19
YANKTON        CLOUDY    28  23  80 S8        30.18F WCI  20
$$

ABBREVIATIONS USED IN REMARKS
   TC - TEMPERATURE IN CELSIUS
  WCI - WIND CHILL INDEX
   HX - HEAT INDEX
  VSB - VISIBILITY




USA.gov is the U.S. government's official web portal to all federal, state and local government web resources and services.